Weather History for Clarksburg, WV

Change the Weather History Date:

Saturday, April 5, 2014

  Actual Average Record
Temperature  
Mean Temperature 42 °F -  
Max Temperature 48 °F 59 °F 85 °F (1986)
Min Temperature 35 °F 37 °F 19 °F (1943)
Degree Days  
Heating Degree Days 24    
Moisture  
Dew Point 28 °F    
Average Humidity 58    
Maximum Humidity 70    
Minimum Humidity 44    
Precipitation  
Precipitation 0.00 in - - ()
Sea Level Pressure  
Sea Level Pressure 30.04 in    
Wind  
Wind Speed 12 mph (West)    
Max Wind Speed 17 mph    
Max Gust Speed 29 mph    
Visibility 10 miles    
Events      
Averages and records for this station are not official NWS values.
T = Trace of Precipitation, MM = Missing Value Source: NWS Daily Summary

Daily Weather History Graph

Daily Weather History Graph

Search for Another Location

Airport:

Trip Planner

Search our weather history database for the weather conditions in past years. The results will help you decide how hot, cold, wet, or windy it might be!

Date:

Astronomy

Apr. 05, 2014 Rise Set
Actual Time 6:59 AM EDT 7:48 PM EDT
Civil Twilight 6:31 AM EDT 8:15 PM EDT
Nautical Twilight 5:59 AM EDT 8:48 PM EDT
Astronomical Twilight 5:26 AM EDT 9:21 PM EDT
Moon 11:06 AM EDT (4/5) 12:56 AM EDT (4/5)
Length of Visible Light 13h 44m
Length of Day
12h 49m
Waxing Crescent, 34% of the Moon is Illuminated
Apr 5
Waxing Crescent
Apr 7
First Quarter
Apr 15
Full
Apr 22
Last Quarter
Apr 29
New

Hourly Weather History & Observations

Time (EDT) Temp. Windchill Dew Point Humidity Pressure Visibility Wind Dir Wind Speed Gust Speed Precip Events Conditions
12:53 AM 46.9 °F - 34.0 °F 61% 29.86 in 10.0 mi West 12.7 mph 25.3 mph N/A   Overcast
1:53 AM 45.0 °F 37.6 °F 34.0 °F 65% 29.89 in 10.0 mi WNW 17.3 mph 23.0 mph N/A   Overcast
2:07 AM 44.1 °F 37.1 °F 33.1 °F 65% 29.91 in 10.0 mi West 15.0 mph 28.8 mph N/A   Overcast
2:40 AM 43.0 °F 37.2 °F 32.0 °F 65% 29.92 in 10.0 mi West 10.4 mph - N/A   Overcast
2:53 AM 42.1 °F 35.2 °F 30.9 °F 65% 29.91 in 10.0 mi West 12.7 mph 23.0 mph N/A   Overcast
3:31 AM 42.1 °F 35.7 °F 30.9 °F 65% 29.93 in 10.0 mi West 11.5 mph 21.9 mph N/A   Overcast
3:53 AM 42.1 °F 34.2 °F 30.0 °F 62% 29.91 in 10.0 mi West 16.1 mph 25.3 mph N/A   Overcast
4:53 AM 42.1 °F 34.9 °F 28.9 °F 60% 29.93 in 10.0 mi West 13.8 mph - N/A   Overcast
5:53 AM 39.9 °F 32.5 °F 28.9 °F 65% 29.96 in 10.0 mi West 12.7 mph - N/A   Overcast
6:53 AM 39.0 °F 30.6 °F 28.0 °F 65% 29.98 in 10.0 mi WNW 15.0 mph - N/A   Overcast
7:17 AM 39.0 °F 30.3 °F 27.0 °F 62% 30.00 in 10.0 mi West 16.1 mph - N/A   Overcast
7:53 AM 39.0 °F 31.8 °F 26.1 °F 60% 30.01 in 10.0 mi West 11.5 mph 25.3 mph N/A   Overcast
8:53 AM 37.9 °F 30.0 °F 24.1 °F 57% 30.04 in 10.0 mi West 12.7 mph 25.3 mph N/A   Overcast
9:53 AM 39.9 °F 32.1 °F 24.1 °F 53% 30.05 in 10.0 mi West 13.8 mph 25.3 mph N/A   Overcast
10:53 AM 39.9 °F 32.5 °F 24.1 °F 53% 30.07 in 10.0 mi WNW 12.7 mph 21.9 mph N/A   Overcast
11:53 AM 41.0 °F 33.9 °F 25.0 °F 53% 30.09 in 10.0 mi West 12.7 mph - N/A   Overcast
12:53 PM 42.1 °F 35.2 °F 26.1 °F 53% 30.09 in 10.0 mi WNW 12.7 mph - N/A   Overcast
1:53 PM 43.0 °F 37.2 °F 27.0 °F 53% 30.10 in 10.0 mi West 10.4 mph - N/A   Overcast
2:53 PM 44.1 °F 38.6 °F 27.0 °F 51% 30.11 in 10.0 mi West 10.4 mph - N/A   Mostly Cloudy
3:53 PM 46.0 °F 42.5 °F 27.0 °F 47% 30.11 in 10.0 mi West 6.9 mph - N/A   Mostly Cloudy
4:53 PM 46.9 °F - 27.0 °F 46% 30.11 in 10.0 mi West 10.4 mph - N/A   Partly Cloudy
5:53 PM 46.9 °F - 26.1 °F 44% 30.13 in 10.0 mi NW 8.1 mph - N/A   Scattered Clouds
6:53 PM 46.9 °F - 26.1 °F 44% 30.13 in 10.0 mi WNW 6.9 mph - N/A   Clear
7:53 PM 44.1 °F 42.5 °F 25.0 °F 47% 30.14 in 10.0 mi WNW 3.5 mph - N/A   Clear
8:53 PM 41.0 °F - 25.0 °F 53% 30.16 in 10.0 mi Calm Calm - N/A   Clear
9:53 PM 39.0 °F - 27.0 °F 62% 30.19 in 10.0 mi Calm Calm - N/A   Clear
10:53 PM 37.0 °F - 27.0 °F 67% 30.20 in 10.0 mi Calm Calm - N/A   Clear
11:53 PM 35.1 °F - 26.1 °F 70% 30.20 in 10.0 mi Calm Calm - N/A   Clear